Location: ?
(35.4064°N, 139.3593°E)
Time: 04:30:37
(UTC+00:00)

Cosmos 1707 Rocket - Pass Details

Date: 18 April 2024
Orbit: 603 x 627 km, 82.5° (Epoch: 23 May)

Event Time Altitude Azimuth Distance (km) Brightness Sun altitude
Rises 19:33:45 0° 185° (S) 2,839 6.7 -7.0°
Reaches altitude 10° 19:35:57 10° 185° (S) 1,939 5.9 -6.5°
Maximum altitude 19:40:14 89° 99° (E) 608 3.6 -5.7°
Drops below altitude 10° 19:44:34 10° 7° (N) 1,955 6.5 -4.9°
Sets 19:46:47 0° 7° (N) 2,864 7.3 -4.4°
